Kezdőlap
METAR-TAF:

METAR-TAF

Repülőterek :

Midland, Texas, Amerikai Egyesült Államok

földrajzi szélesség: 32-02-11N, földrajzi hosszúság: 102-06-03W, magasság: 854 m

Jelenlegi meteorológiai megfigyelések

A jelentés 25 perccel ezelõtt készült, 14:35 UTC
Déli szél 16 kt széllökések: 25 kt
Hőmérséklet 27°C
Páratartalom 62%
Légköri nyomás 1009 hPa
Látótávolság: 16.1 km

METAR: KMDD 181435Z AUTO 17016G25KT 10SM 27/19 A2981 RMK AO2 T02670194

Idő: 10:00 (15:00 UTC)


TAF: hiányzik

Meteorológiai megfigyelések és előrejelzések több, mint 4000 repülőtéren (METAR és TAF jelentéseket).

A térképen piros és sárga pontok jelzik az elérhető meteorológiai állomásokat.

Mozgassa az egeret a pont fölött, hogy megjelenjen az állomás neve.

Azután kattintson az időjárási megfigyelések és előrejelzések megtekintéséhez.

A térkép megváltoztatása: kattintson a fekete keresztel jelölt zöld gombra ráközelítéshez, a vonallal jelölt zöld gombra távolításhoz, vagy a zöld nyilakra a szomszédos térképek eléréséhez.


METAR-TAF: